Regional Weather Roundup
Issued by NWS

Home | Current Version | Previous Version | Text Only | Print | Product List | Glossary Off
Versions: 1 2 3 4 5 6 7 8 9 10 11 12 13 14 15 16 17 18 19 20 21 22 23 24 25 26 27 28 29 30 31 32 33 34 35 36 37 38 39 40 41 42 43 44 45 46 47 48 49 50

000
ASUS43 KLOT 010610
RWRIL

ILLINOIS REGIONAL WEATHER ROUNDUP
NATIONAL WEATHER SERVICE CHICAGO/ROMEOVILLE IL
1200 AM CST SUN MAR 01 2015

NOTE: "FAIR" INDICATES FEW OR NO CLOUDS BELOW 12,000 FEET WITH NO
SIGNIFICANT WEATHER AND/OR OBSTRUCTIONS TO VISIBILITY.

* THESE STATIONS ARE NOT UNDER NWS QUALITY CONTROL. THEY ALSO MAY NOT
  REPORT WEATHER SUCH AS PRECIPITATION OR FOG.

ILZ001-002-007-009-015-016-024-010700-
NORTHWEST ILLINOIS

CITY           SKY/WX    TMP DP  RH WIND       PRES   REMARKS
MOLINE         PTCLDY     6   3  87 CALM      30.43F FOG
6HR MIN TEMP:   6; 6HR MAX TEMP:  17; 6HR PCP: TRACE;

STERLING*      PTCLDY     9   9 100 E5        30.43F WCI   0
SAVANNA*       PTCLDY    10   6  87 CALM      30.44F
$$

ILZ003-004-008-010-011-017-018-010700-
NORTH CENTRAL ILLINOIS

CITY           SKY/WX    TMP DP  RH WIND       PRES   REMARKS
ROCKFORD       FLURRIES  13   9  84 CALM      30.44F
6HR MIN TEMP:  12; 6HR MAX TEMP:  17; 6HR PCP:  0.01;

FREEPORT*      PTCLDY     9   6  89 SE3       30.44F FOG
ROCHELLE*      FLURRIES  13  11  91 SE6       30.43F WCI   4
DE KALB*       FLURRIES  15  12  90 SE7       30.42F WCI   5
PERU*          CLOUDY    19  17  89 SE5       30.44F WCI  13
$$

ILZ005-006-012>014-019>023-010700-
NORTHEAST ILLINOIS

CITY           SKY/WX    TMP DP  RH WIND       PRES   REMARKS
CHICAGO-OHARE  LGT SNOW  18  14  84 S6        30.45F FOG     WCI  10
6HR MIN TEMP:  16; 6HR MAX TEMP:  20; 6HR PCP:  0.02;

CHICAGO-MIDWAY FLURRIES  20  15  81 S5        30.46F WCI  13
6HR MIN TEMP:  20; 6HR MAX TEMP:  23; 6HR PCP: TRACE;

AURORA         CLOUDY    19  13  77 SE5       30.44F HAZE    WCI  12
6HR MIN TEMP:  16; 6HR MAX TEMP:  20; 6HR PCP: TRACE;

LANSING*       FLURRIES  19  16  88 SE3       30.46F
JOLIET*        LGT SNOW  18  15  88 SE5       30.46F WCI  11
WAUKEGAN       CLOUDY    17  14  88 S7        30.43F WCI   8
6HR MIN TEMP:  16; 6HR MAX TEMP:  20; 6HR PCP: TRACE;

DUPAGE AIRPORT CLOUDY    18  13  80 SE6       30.43F WCI  10
6HR MIN TEMP:  16; 6HR MAX TEMP:  20; 6HR PCP: TRACE;

KANKAKEE*      LGT SNOW  19  17  91 CALM      30.46F
WHEELING       CLOUDY    18  14  84 S5        30.47F FOG     WCI  11
6HR MIN TEMP:  18; 6HR MAX TEMP:  21; 6HR PCP: TRACE;

MORRIS*        LGT SNOW  19  17  93 CALM      30.45F
ROMEOVILLE*    LGT SNOW  18  15  87 SE3       30.45F
NORTHERLY ISL    N/A     19  14  81 S5          N/A  WCI  12
$$

LMZ740>746-010700-
SOUTHERN LAKE MICHIGAN

STATION/POSITION SKY/WX   TEMP    WIND        PRES    VSBY  WAVE
                          AIR SEA DIR/SP/G                  HT/PER
                          (F)     (DEG/KT/KT) (MB)    (MI)  (FT/S)
WAUKEGAN HARBOR            19     190/  9/ 17   N/A
HARRISON CRIB              20     180/ 11/ 13   N/A
BURNHAM HARBOR             19     170/  2/  9   N/A
CALUMET HARBOR             19     140/  4/  6 1030.2F
MICHIGAN CITY              17     120/  6/  8   N/A
$$

ILZ025>027-034>036-040-047-049-050-058-095>099-010700-
WEST-CENTRAL ILLINOIS

CITY           SKY/WX    TMP DP  RH WIND       PRES   REMARKS
QUINCY         LGT SNOW  20  18  92 E5        30.39F FOG     WCI  13
GALESBURG*     FLURRIES  18  17  93 SE3       30.40F
MACOMB*        CLOUDY    20  19  96 SE3       30.44F
JACKSONVILLE*  LGT SNOW  23  20  89 E5        30.41F WCI  17
PITTSFIELD*    LGT SNOW  23  21  92 CALM      30.41F
$$

ILZ028>032-037-038-041>044-048-051>054-059>061-010700-
CENTRAL ILLINOIS

CITY           SKY/WX    TMP DP  RH WIND       PRES   REMARKS
PONTIAC        LGT SNOW  20  18  93 SE5       30.45F WCI  13
BLOOMINGTON    FLURRIES  20  18  92 SE5       30.42F WCI  14
DECATUR        LGT SNOW  22  20  92 E5        30.42F FOG     WCI  16
PEORIA         CLOUDY    21  17  84 SE3       30.44F
6HR MIN TEMP:  21; 6HR MAX TEMP:  22; 6HR PCP:  0.02;

LACON*         LGT SNOW  18  15  88 CALM      30.44F
LINCOLN*       LGT SNOW  23  20  91 E3        30.46F
SPRINGFIELD    LGT SNOW  22  20  92 E3        30.42F FOG
6HR MIN TEMP:  22; 6HR MAX TEMP:  23; 6HR PCP:  0.30;

TAYLORVILLE    LGT SNOW  23  21  93 CALM      30.42F
$$

ILZ033-039-045-046-055>057-062-063-010700-
EAST-CENTRAL ILLINOIS

CITY           SKY/WX    TMP DP  RH WIND       PRES   REMARKS
CHAMPAIGN      LGT SNOW  21  19  92 E6        30.42F VSB 3/4 WCI  13
DANVILLE*      LGT SNOW  20  19  93 CALM      30.41F VSB 3/4
RANTOUL*       LGT SNOW  23  21  92 SE5       30.43F WCI  16
MATTOON        LGT SNOW  24  21  88 SE5       30.41S FOG     WCI  18
PARIS*         LGT SNOW  23  22  96 CALM      30.44F VSB 1
$$

ILZ079-100>102-010700-
SOUTHWEST ILLINOIS

CITY           SKY/WX    TMP DP  RH WIND       PRES   REMARKS
ALTON          LGT SNOW  24  23  95 E3        30.42F
BELLEVILLE     LGT SNOW  25  25  99 E2        30.41F FOG
CAHOKIA*       LGT SNOW  26  25  96 CALM      30.42F VSB 1
SPARTA*        LGT SNOW  27  25  95 S5        30.41F WCI  21
$$

ILZ064>066-069>071-074>076-080>082-084>086-088>090-092>094-010700-
SOUTH-CENTRAL ILLINOIS

CITY           SKY/WX    TMP DP  RH WIND       PRES   REMARKS
CARBONDALE     CLOUDY    31  21  66 E3        30.42F
6HR MIN TEMP:  28; 6HR MAX TEMP:  31; 6HR PCP: TRACE;

CAIRO*         CLOUDY    34  22  61 NE7       30.41F WCI  28
EFFINGHAM*     LGT SNOW  25  22  89 E3        30.44F VSB 3/4
MARION         CLOUDY    32  21  64 E5        30.42F WCI  27
MT. VERNON     CLOUDY    28  25  86 CALM      30.42F
CENTRALIA*     LGT SNOW  26  24  91 E3        30.41F
SALEM*         LGT SNOW  27  25  91 CALM      30.41F
METROPOLIS*    CLOUDY    33  23  66 NE5       30.41F WCI  28
$$

ILZ067-068-072-073-078-083-087-091-010700-
SOUTHEAST ILLINOIS

CITY           SKY/WX    TMP DP  RH WIND       PRES   REMARKS
LAWRENCEVILLE  LGT SNOW  27  25  92 SE3       30.44F VSB 3/4
FLORA*         LGT SNOW  25  24  97 NE5       30.42F WCI  19
FAIRFIELD*     LGT SNOW  29  28  96 CALM      30.41F VSB 1
HARRISBURG*    CLOUDY    32  23  70 E5        30.44F WCI  27
ROBINSON*      LGT SNOW  26  26  97 CALM      30.45F
CARMI*         LGT SNOW  33  27  80 E8        30.43F WCI  25
$$

ABBREVIATIONS USED IN REMARKS
   TC - TEMPERATURE IN CELSIUS
  WCI - WIND CHILL INDEX
   HX - HEAT INDEX
  VSB - VISIBILITY
$$




USA.gov is the U.S. government's official web portal to all federal, state and local government web resources and services.